����,���ϕ���(m/s),���ϕ���,�ő�u�ԕ���(m/s),�ő啗��������,�C��(��),���x(%),10���Ԉړ��ώZ�J��(mm),1���Ԉړ��ώZ�J��(mm),���J��(mm),�݌v�J��(mm)
2023-03-13T00:00:00+09:00,4.4,��,10.7,��쓌,15,74.2,0,0,0,0
2023-03-13T00:01:00+09:00,4.3,��,8.5,��쓌,15,74.9,0,0,0,0
2023-03-13T00:02:00+09:00,4.2,��,7.6,��쐼,14.9,75.2,0,0,0,0
2023-03-13T00:03:00+09:00,4.4,��,8.9,��쐼,14.8,75.9,0,0,0,0
2023-03-13T00:04:00+09:00,4.4,��,8.9,��쐼,14.6,77.4,0.5,0.5,0.5,0.5
2023-03-13T00:05:00+09:00,4.4,��,8.9,��쐼,14.5,79,0.5,0.5,0.5,0.5
2023-03-13T00:06:00+09:00,4.1,��,8.9,��쐼,14.2,80.7,1,1,1,1
2023-03-13T00:07:00+09:00,4,��,8.9,��쐼,14.1,83.1,1,1,1,1
2023-03-13T00:08:00+09:00,3.8,��,8.9,��쐼,14.1,85.3,1,1,1,1
2023-03-13T00:09:00+09:00,3.8,��,8.9,��쐼,14.1,86.4,1,1,1,1
2023-03-13T00:10:00+09:00,3.8,��,9.1,��쐼,14,87.1,1,1,1,1
2023-03-13T00:11:00+09:00,3.9,��,9.1,��쐼,14.2,87.9,1,1,1,1
2023-03-13T00:12:00+09:00,3.8,��,9.1,��쐼,14.3,87.1,1,1,1,1
2023-03-13T00:13:00+09:00,3.7,��,9.1,��쐼,14.3,86.3,1,1,1,1
2023-03-13T00:14:00+09:00,3.7,��,9.1,��쐼,14.3,86.4,0.5,1,1,1
2023-03-13T00:15:00+09:00,3.8,��,9.1,��쐼,14.3,86.2,0.5,1,1,1
2023-03-13T00:16:00+09:00,3.9,��,9.1,��쐼,14.3,86.2,0,1,1,1
2023-03-13T00:17:00+09:00,3.9,��,9.1,��쐼,14.2,86.3,0.5,1.5,1.5,1.5
2023-03-13T00:18:00+09:00,4,��,9.1,��쐼,14.2,86.6,0.5,1.5,1.5,1.5
2023-03-13T00:19:00+09:00,4,��,9.1,��쐼,14.2,87,0.5,1.5,1.5,1.5
2023-03-13T00:20:00+09:00,3.8,��,9.1,��,14.2,87.6,0.5,1.5,1.5,1.5
2023-03-13T00:21:00+09:00,3.4,��,7.1,��,14.2,88.1,0.5,1.5,1.5,1.5
2023-03-13T00:22:00+09:00,3.3,��,7,��쐼,14.3,88.2,0.5,1.5,1.5,1.5
2023-03-13T00:23:00+09:00,3.3,��,6.8,��쐼,14.3,87.5,0.5,1.5,1.5,1.5
2023-03-13T00:24:00+09:00,3.4,��,7.1,��,14.3,87.2,0.5,1.5,1.5,1.5
2023-03-13T00:25:00+09:00,3.3,��,7.3,�쓌,14.5,86.9,0.5,1.5,1.5,1.5
2023-03-13T00:26:00+09:00,3.2,��,7.3,�쓌,14.4,85.6,0.5,1.5,1.5,1.5
2023-03-13T00:27:00+09:00,3.3,��,7.3,�쓌,14.5,85.3,0,1.5,1.5,1.5
2023-03-13T00:28:00+09:00,3.4,��,7.3,�쓌,14.4,85.1,0,1.5,1.5,1.5
2023-03-13T00:29:00+09:00,3.3,��,7.3,�쓌,14.3,85.5,0,1.5,1.5,1.5
2023-03-13T00:30:00+09:00,3.5,��,9.4,��,14.4,86.4,0,1.5,1.5,1.5
2023-03-13T00:31:00+09:00,3.7,��,9.4,��,14.6,85.9,0,1.5,1.5,1.5
2023-03-13T00:32:00+09:00,3.8,��,9.4,��,14.7,84.1,0,1.5,1.5,1.5
2023-03-13T00:33:00+09:00,3.7,��,9.4,��,14.6,83.1,0,1.5,1.5,1.5
2023-03-13T00:34:00+09:00,3.5,��,9.4,��,14.5,83.2,0,1.5,1.5,1.5
2023-03-13T00:35:00+09:00,3.6,��,9.4,��,14.6,83.5,0,1.5,1.5,1.5
2023-03-13T00:36:00+09:00,3.6,��,9.4,��,14.6,82.6,0,1.5,1.5,1.5
2023-03-13T00:37:00+09:00,3.5,��,9.4,��,14.5,82.8,0,1.5,1.5,1.5
2023-03-13T00:38:00+09:00,3.5,��,9.4,��,14.5,83.4,0,1.5,1.5,1.5
2023-03-13T00:39:00+09:00,3.6,��,9.4,��,14.6,83.5,0,1.5,1.5,1.5
2023-03-13T00:40:00+09:00,3.5,��,7.9,��쐼,14.8,82.5,0,1.5,1.5,1.5
2023-03-13T00:41:00+09:00,3.4,��,7.9,��쐼,14.9,81.4,0,1.5,1.5,1.5
2023-03-13T00:42:00+09:00,3.5,��,7.9,��쐼,14.8,80.6,0,1.5,1.5,1.5
2023-03-13T00:43:00+09:00,3.8,��,8.8,��쐼,14.9,80.3,0,1.5,1.5,1.5
2023-03-13T00:44:00+09:00,4,��,8.9,��,14.9,79.3,0,1.5,1.5,1.5
2023-03-13T00:45:00+09:00,4,��,8.9,��,14.8,79.3,0,1.5,1.5,1.5
2023-03-13T00:46:00+09:00,4.5,��,12.1,��쐼,15.1,79.3,0,1.5,1.5,1.5
2023-03-13T00:47:00+09:00,4.8,��,12.1,��쐼,15.2,77,0,1.5,1.5,1.5
2023-03-13T00:48:00+09:00,4.9,��,12.1,��쐼,15.2,76.1,0,1.5,1.5,1.5
2023-03-13T00:49:00+09:00,5,��,12.1,��쐼,15.1,76.3,0,1.5,1.5,1.5
2023-03-13T00:50:00+09:00,5.1,��,12.1,��쐼,15.1,76.8,0,1.5,1.5,1.5
2023-03-13T00:51:00+09:00,5.1,��,12.1,��쐼,15.1,77,0,1.5,1.5,1.5
2023-03-13T00:52:00+09:00,5.1,��,12.1,��쐼,15.1,77,0,1.5,1.5,1.5
2023-03-13T00:53:00+09:00,5,��,12.1,��쐼,15.2,76.2,0,1.5,1.5,1.5
2023-03-13T00:54:00+09:00,4.8,��,12.1,��쐼,15,76.3,0,1.5,1.5,1.5
2023-03-13T00:55:00+09:00,4.8,��,12.1,��쐼,15.1,77.2,0,1.5,1.5,1.5
2023-03-13T00:56:00+09:00,4.4,��,8.3,��쐼,15.2,76.2,0,1.5,1.5,1.5
2023-03-13T00:57:00+09:00,4.1,��,8.3,��쐼,15.3,75,0,1.5,1.5,1.5
2023-03-13T00:58:00+09:00,4.1,��,8.3,��쐼,15.2,74.5,0,1.5,1.5,1.5
2023-03-13T00:59:00+09:00,4,��,8.3,��쐼,15.1,75.3,0,1.5,1.5,1.5
2023-03-13T01:00:00+09:00,3.9,��,8.3,��쐼,15.2,75.3,0,1.5,1.5,1.5
2023-03-13T01:01:00+09:00,4.1,��,10.4,��,15.3,74.4,0,1.5,1.5,1.5
2023-03-13T01:02:00+09:00,4,��,10.4,��,15.3,73.4,0,1.5,1.5,1.5
2023-03-13T01:03:00+09:00,4.2,��,10.4,��,15.4,73.3,0,1.5,1.5,1.5
2023-03-13T01:04:00+09:00,4.5,��,10.4,��,15.3,73.3,0,1,1.5,1.5
2023-03-13T01:05:00+09:00,4.5,��,10.4,��,15.3,74,0,1,1.5,1.5
2023-03-13T01:06:00+09:00,4.6,��,10.4,��,15.3,74,0,0.5,1.5,1.5
2023-03-13T01:07:00+09:00,4.8,��,10.4,��,15.1,74.6,0,0.5,1.5,1.5
2023-03-13T01:08:00+09:00,4.8,��,10.4,��,15.2,75.1,0,0.5,1.5,1.5
2023-03-13T01:09:00+09:00,4.9,��,10.4,��,15.2,74.9,0,0.5,1.5,1.5
2023-03-13T01:10:00+09:00,4.9,��,10.4,��,15.3,75.1,0,0.5,1.5,1.5
2023-03-13T01:11:00+09:00,4.7,��,9.7,��,15.5,73.9,0,0.5,1.5,1.5
2023-03-13T01:12:00+09:00,4.8,��,9.7,��,15.4,73,0,0.5,1.5,1.5
2023-03-13T01:13:00+09:00,4.7,��,9.7,��,15.3,73.4,0,0.5,1.5,1.5
2023-03-13T01:14:00+09:00,4.6,��,9.4,��쓌,15.3,73.6,0,0.5,1.5,1.5
2023-03-13T01:15:00+09:00,4.5,��,9.4,��쓌,15.3,73.4,0,0.5,1.5,1.5
2023-03-13T01:16:00+09:00,4.3,��,8.8,��쓌,15.3,73.7,0,0.5,1.5,1.5
2023-03-13T01:17:00+09:00,4.3,��,8.8,��쓌,15.3,74.1,0,0,1.5,1.5
2023-03-13T01:18:00+09:00,4.2,��,8.8,��쓌,15.4,73.2,0,0,1.5,1.5
2023-03-13T01:19:00+09:00,4.2,��,8.8,��쓌,15.4,72.7,0,0,1.5,1.5
2023-03-13T01:20:00+09:00,4.2,��,8.2,��쓌,15.3,73.2,0,0,1.5,1.5
2023-03-13T01:21:00+09:00,4,��,8,�쐼,15.4,73.2,0,0,1.5,1.5
2023-03-13T01:22:00+09:00,3.9,��,8,�쐼,15.4,72.8,0,0,1.5,1.5
2023-03-13T01:23:00+09:00,3.9,��,8,�쐼,15.5,72.2,0,0,1.5,1.5
2023-03-13T01:24:00+09:00,3.7,��,8,�쐼,15.4,72,0,0,1.5,1.5
2023-03-13T01:25:00+09:00,4,��,9.8,��,15.5,72.4,0,0,1.5,1.5
2023-03-13T01:26:00+09:00,4.1,��,9.8,��,15.6,71.5,0,0,1.5,1.5
2023-03-13T01:27:00+09:00,4.1,��,9.8,��,15.5,71.3,0,0,1.5,1.5
2023-03-13T01:28:00+09:00,4,��,9.8,��,15.6,71.2,0,0,1.5,1.5
2023-03-13T01:29:00+09:00,3.8,��,9.8,��,15.5,71.3,0,0,1.5,1.5
2023-03-13T01:30:00+09:00,3.5,��,9.8,��,15.4,71.8,0,0,1.5,1.5
2023-03-13T01:31:00+09:00,3.5,��,9.8,��,15.3,72.4,0,0,1.5,1.5
2023-03-13T01:32:00+09:00,3.5,��,9.8,��,15.3,73.5,0,0,1.5,1.5
2023-03-13T01:33:00+09:00,3.4,��쓌,9.8,��,15.5,72.9,0,0,1.5,1.5
2023-03-13T01:34:00+09:00,3.1,��쓌,9.8,��,15.6,71.9,0,0,1.5,1.5
2023-03-13T01:35:00+09:00,2.8,��쓌,7.7,�쓌,15.6,71.2,0,0,1.5,1.5
2023-03-13T01:36:00+09:00,2.7,��쓌,7.3,��쓌,15.6,70.8,0,0,1.5,1.5
2023-03-13T01:37:00+09:00,2.8,��쓌,10,��,15.6,70.9,0,0,1.5,1.5
2023-03-13T01:38:00+09:00,3,��쓌,10,��,15.7,70.6,0,0,1.5,1.5
2023-03-13T01:39:00+09:00,3.4,��쓌,11.4,��쓌,16,69.1,0,0,1.5,1.5
2023-03-13T01:40:00+09:00,3.7,��쓌,11.4,��쓌,15.9,68.3,0,0,1.5,1.5
2023-03-13T01:41:00+09:00,3.7,��쓌,11.4,��쓌,15.8,68.5,0,0,1.5,1.5
2023-03-13T01:42:00+09:00,4,��쓌,11.4,��쓌,15.9,68.6,0,0,1.5,1.5
2023-03-13T01:43:00+09:00,4.4,��쓌,11.4,��쓌,15.8,68.6,0,0,1.5,1.5
2023-03-13T01:44:00+09:00,4.7,��쓌,11.4,��쓌,15.7,69.2,0,0,1.5,1.5
2023-03-13T01:45:00+09:00,5,��쓌,11.4,��쓌,15.9,69.2,0,0,1.5,1.5
2023-03-13T01:46:00+09:00,5.2,��쓌,11.4,��쓌,16,68.3,0,0,1.5,1.5
2023-03-13T01:47:00+09:00,5.2,��쓌,11.4,��쓌,15.9,67.9,0,0,1.5,1.5
2023-03-13T01:48:00+09:00,5,��쓌,11.4,��쓌,15.8,68.3,0,0,1.5,1.5
2023-03-13T01:49:00+09:00,4.8,��쓌,10.1,��,15.7,69,0,0,1.5,1.5
2023-03-13T01:50:00+09:00,4.9,��쓌,10.1,��,15.7,69.7,0,0,1.5,1.5
2023-03-13T01:51:00+09:00,5.1,��쓌,10.1,��,15.8,69.8,0,0,1.5,1.5
2023-03-13T01:52:00+09:00,4.9,��쓌,10.1,��,15.8,69.9,0,0,1.5,1.5
2023-03-13T01:53:00+09:00,4.8,��쓌,10.1,��,15.8,70.2,0,0,1.5,1.5
2023-03-13T01:54:00+09:00,4.9,��쓌,9.9,�쓌,15.8,70.4,0,0,1.5,1.5
2023-03-13T01:55:00+09:00,4.8,��쓌,9.8,�쓌,15.7,70.5,0,0,1.5,1.5
2023-03-13T01:56:00+09:00,4.5,��쓌,9.6,��,15.6,71.4,0,0,1.5,1.5
2023-03-13T01:57:00+09:00,4.2,��쓌,9.6,��,15.6,72,0,0,1.5,1.5
2023-03-13T01:58:00+09:00,4.1,��쓌,9.6,��,15.5,72.4,0,0,1.5,1.5
2023-03-13T01:59:00+09:00,4.1,��쓌,9.6,��,15.5,72.9,0,0,1.5,1.5
2023-03-13T02:00:00+09:00,4,��쓌,9.5,��쓌,15.4,73.7,0,0,1.5,1.5
2023-03-13T02:01:00+09:00,4,�쓌,8.9,��쓌,15.2,74.5,0,0,1.5,1.5
2023-03-13T02:02:00+09:00,3.9,�쓌,8.9,��쓌,15.1,75.7,0,0,1.5,1.5
2023-03-13T02:03:00+09:00,3.8,�쓌,8.9,��쓌,15.2,76.5,0,0,1.5,1.5
2023-03-13T02:04:00+09:00,3.7,�쓌,9.8,��쓌,15.3,76.5,0,0,1.5,1.5
2023-03-13T02:05:00+09:00,3.6,�쓌,9.8,��쓌,15.3,76.3,0,0,1.5,1.5
2023-03-13T02:06:00+09:00,3.7,�쓌,9.8,��쓌,15.3,76.1,0,0,1.5,1.5
2023-03-13T02:07:00+09:00,4,�쓌,9.8,��쓌,15.4,75.7,0,0,1.5,1.5
2023-03-13T02:08:00+09:00,4.3,�쓌,9.8,��쓌,15.4,75.3,0,0,1.5,1.5
2023-03-13T02:09:00+09:00,4.3,��쓌,10.1,�쓌,15.3,75.3,0,0,1.5,1.5
2023-03-13T02:10:00+09:00,4.3,��쓌,10.1,�쓌,15.3,76.1,0,0,1.5,1.5
2023-03-13T02:11:00+09:00,4.3,��쓌,10.1,�쓌,15.4,76.1,0,0,1.5,1.5
2023-03-13T02:12:00+09:00,4.3,��쓌,10.1,�쓌,15.3,75.9,0,0,1.5,1.5
2023-03-13T02:13:00+09:00,4.2,��쓌,10.1,�쓌,15.2,76.3,0,0,1.5,1.5
2023-03-13T02:14:00+09:00,4.1,��쓌,10.1,�쓌,15.2,77.1,0,0,1.5,1.5
2023-03-13T02:15:00+09:00,3.9,��쓌,10.1,�쓌,15.1,77.5,0,0,1.5,1.5
2023-03-13T02:16:00+09:00,3.8,��쓌,10.1,�쓌,14.9,78.5,0,0,1.5,1.5
2023-03-13T02:17:00+09:00,3.6,��쓌,10.1,�쓌,14.7,80.5,0.5,0.5,2,2
2023-03-13T02:18:00+09:00,3.4,��쓌,10.1,�쓌,14.8,82,0.5,0.5,2,2
2023-03-13T02:19:00+09:00,3.1,��쓌,10.1,�쓌,14.7,82.5,0.5,0.5,2,2
2023-03-13T02:20:00+09:00,2.7,��쓌,10.1,�쓌,14.4,83.5,0.5,0.5,2,2
2023-03-13T02:21:00+09:00,2.4,��쓌,10.1,�쓌,14.2,85.3,0.5,0.5,2,2
2023-03-13T02:22:00+09:00,2.2,��쓌,10.1,�쓌,14.1,87.7,1,1,2.5,2.5
2023-03-13T02:23:00+09:00,2,��쓌,10.1,�쓌,14.1,90.4,1,1,2.5,2.5
2023-03-13T02:24:00+09:00,1.9,��쓌,5,�쓌,14,91.8,1,1,2.5,2.5
2023-03-13T02:25:00+09:00,2.4,��쓌,12.5,�k�k��,13.9,93.7,1,1,2.5,2.5
2023-03-13T02:26:00+09:00,2.8,��쓌,12.7,�k�k��,12.6,87,1,1,2.5,2.5
2023-03-13T02:27:00+09:00,3,���쓌,12.7,�k�k��,12,85.3,0.5,1,2.5,2.5
2023-03-13T02:28:00+09:00,3.2,�k�k��,12.7,�k�k��,11.7,88.4,0.5,1,2.5,2.5
2023-03-13T02:29:00+09:00,3.3,�k,12.7,�k�k��,11.4,90.6,0.5,1,2.5,2.5
2023-03-13T02:30:00+09:00,3.5,�k,12.7,�k�k��,11.2,93.1,0.5,1,2.5,2.5
2023-03-13T02:31:00+09:00,3.7,�k�k��,12.7,�k�k��,11,95,0.5,1,2.5,2.5
2023-03-13T02:32:00+09:00,4.2,�k�k��,12.7,�k�k��,10.7,95.6,0.5,1.5,3,3
2023-03-13T02:33:00+09:00,4.5,�k�k��,12.7,�k�k��,10.5,96,0.5,1.5,3,3
2023-03-13T02:34:00+09:00,5,�k�k��,12.7,�k�k��,10.4,97,1,2,3.5,3.5
2023-03-13T02:35:00+09:00,4.8,�k�k��,12.7,�k�k��,10.3,97.5,1,2,3.5,3.5
2023-03-13T02:36:00+09:00,4.5,�k�k��,9.9,�k�k��,10.3,98,1,2,3.5,3.5
2023-03-13T02:37:00+09:00,4.5,�k�k��,9.9,�k�k��,10.2,98.3,1.5,2.5,4,4
2023-03-13T02:38:00+09:00,4.5,�k�k��,9.9,�k�k��,10.1,98.4,1.5,2.5,4,4
2023-03-13T02:39:00+09:00,4.6,�k�k��,9.9,�k�k��,9.9,98.6,1.5,2.5,4,4
2023-03-13T02:40:00+09:00,4.8,�k�k��,9.9,�k�k��,9.8,98.7,2,3,4.5,4.5
2023-03-13T02:41:00+09:00,5,�k�k��,9.9,�k�k��,9.8,98.8,2,3,4.5,4.5
2023-03-13T02:42:00+09:00,4.9,�k�k��,9.9,�k�k��,9.7,98.9,1.5,3,4.5,4.5
2023-03-13T02:43:00+09:00,4.9,�k�k��,9.9,�k�k��,9.7,99,1.5,3,4.5,4.5
2023-03-13T02:44:00+09:00,4.6,�k�k��,8,�k�k��,9.7,99.1,1,3,4.5,4.5
2023-03-13T02:45:00+09:00,4.5,�k�k��,7.5,�k�k��,9.6,99.2,1,3,4.5,4.5
2023-03-13T02:46:00+09:00,4.7,�k�k��,7.5,�k�k��,9.6,99.3,1,3,4.5,4.5
2023-03-13T02:47:00+09:00,4.7,�k�k��,7.5,�k�k��,9.6,99.4,0.5,3,4.5,4.5
2023-03-13T02:48:00+09:00,4.6,�k�k��,7.5,�k�k��,9.6,99.5,0.5,3,4.5,4.5
2023-03-13T02:49:00+09:00,4.5,�k��,7.5,�k�k��,9.7,99.5,1,3.5,5,5
2023-03-13T02:50:00+09:00,4.3,�k��,7.5,�k�k��,9.7,99.7,0.5,3.5,5,5
2023-03-13T02:51:00+09:00,3.9,�k��,7,�k��,9.8,99.7,0.5,3.5,5,5
2023-03-13T02:52:00+09:00,3.6,�k��,7,�k��,9.7,99.7,0.5,3.5,5,5
2023-03-13T02:53:00+09:00,3.3,�k��,7,�k��,9.5,99.5,0.5,3.5,5,5
2023-03-13T02:54:00+09:00,3.2,�k��,7,�k��,9.5,99.5,1,4,5.5,5.5
2023-03-13T02:55:00+09:00,3,�k��,7,�k��,9.5,99.6,1,4,5.5,5.5
2023-03-13T02:56:00+09:00,2.9,�k�k��,6.1,�k��,9.5,99.6,1.5,4.5,6,6
2023-03-13T02:57:00+09:00,2.6,�k�k��,6.1,�k��,9.4,99.6,2,5,6.5,6.5
2023-03-13T02:58:00+09:00,2.5,�k�k��,6.1,�k��,9.4,99.7,2,5,6.5,6.5
2023-03-13T02:59:00+09:00,2.4,�k�k��,6.1,�k��,9.3,99.7,2,5.5,7,7
2023-03-13T03:00:00+09:00,2.5,�k�k��,6,�k��,9.3,99.6,2.5,6,7.5,7.5
2023-03-13T03:01:00+09:00,2.6,�k,6,�k��,9.2,99.6,2.5,6,7.5,7.5
2023-03-13T03:02:00+09:00,2.7,�k�k��,6,�k��,9.3,99.7,3,6.5,8,8
2023-03-13T03:03:00+09:00,2.8,�k�k��,6,�k��,9.3,99.8,3,6.5,8,8
2023-03-13T03:04:00+09:00,2.7,�k�k��,6,�k��,9.3,99.8,2.5,6.5,8,8
2023-03-13T03:05:00+09:00,2.7,�k�k��,6,�k��,9.3,99.8,3,7,8.5,8.5
2023-03-13T03:06:00+09:00,2.6,�k�k��,5.7,�k�k��,9.3,99.8,2.5,7,8.5,8.5
2023-03-13T03:07:00+09:00,2.9,�k�k��,6.5,�k��,9.2,99.8,2,7,8.5,8.5
2023-03-13T03:08:00+09:00,3,�k�k��,6.5,�k��,9.2,99.8,2.5,7.5,9,9
2023-03-13T03:09:00+09:00,2.9,�k�k��,6.5,�k��,9.2,99.8,2,7.5,9,9
2023-03-13T03:10:00+09:00,2.7,�k�k��,6.5,�k��,9.2,99.8,1.5,7.5,9,9
2023-03-13T03:11:00+09:00,2.6,�k��,6.5,�k��,9.2,99.9,1.5,7.5,9,9
2023-03-13T03:12:00+09:00,2.5,�k��,6.5,�k��,9.2,99.9,1,7.5,9,9
2023-03-13T03:13:00+09:00,2.4,�k��,6.5,�k��,9.2,99.8,1.5,8,9.5,9.5
2023-03-13T03:14:00+09:00,2.6,�k��,6.5,�k��,9.2,99.8,1.5,8,9.5,9.5
2023-03-13T03:15:00+09:00,2.8,�k��,6.5,�k��,9.2,99.9,1,8,9.5,9.5
2023-03-13T03:16:00+09:00,2.8,�k��,6.5,�k��,9.2,99.9,1,8,9.5,9.5
2023-03-13T03:17:00+09:00,2.8,�k��,5.7,�k��,9.2,99.8,1,7.5,9.5,9.5
2023-03-13T03:18:00+09:00,2.6,�k��,4.8,�k��,9.1,99.8,0.5,7.5,9.5,9.5
2023-03-13T03:19:00+09:00,2.8,�k��,4.8,�k��,9.1,99.9,0.5,7.5,9.5,9.5
2023-03-13T03:20:00+09:00,2.9,�k�k��,4.8,�k��,9.1,99.9,0.5,7.5,9.5,9.5
2023-03-13T03:21:00+09:00,2.8,�k�k��,4.8,�k��,9.2,99.9,0.5,7.5,9.5,9.5
2023-03-13T03:22:00+09:00,2.8,�k�k��,4.8,�k��,9.1,99.9,0.5,7,9.5,9.5
2023-03-13T03:23:00+09:00,2.7,�k�k��,4.8,�k��,9,99.9,0,7,9.5,9.5
2023-03-13T03:24:00+09:00,2.6,�k�k��,4.8,�k��,9,99.9,0,7,9.5,9.5
2023-03-13T03:25:00+09:00,2.4,�k�k��,4.8,�k��,9,99.9,0,7,9.5,9.5
2023-03-13T03:26:00+09:00,2.2,�k�k��,4.6,�k�k��,9,100,0.5,7.5,10,10
2023-03-13T03:27:00+09:00,1.9,�k�k��,4.1,�k,9.1,100,0.5,7.5,10,10
2023-03-13T03:28:00+09:00,1.9,�k�k��,4,�k��,9,100,0.5,7.5,10,10
2023-03-13T03:29:00+09:00,1.9,�k�k��,4,�k��,9,100,0.5,7.5,10,10
2023-03-13T03:30:00+09:00,1.9,�k�k��,4.8,�k��,9.1,100,0.5,7.5,10,10
2023-03-13T03:31:00+09:00,2.2,�k�k��,5.8,���k��,9.2,100,0.5,7.5,10,10
2023-03-13T03:32:00+09:00,2.4,�k�k��,5.8,���k��,9.1,100,0.5,7,10,10
2023-03-13T03:33:00+09:00,2.4,�k��,5.8,���k��,9.3,100,1,7.5,10.5,10.5
2023-03-13T03:34:00+09:00,2.4,�k��,5.8,���k��,9.2,100,1,7,10.5,10.5
2023-03-13T03:35:00+09:00,2.3,�k��,5.8,���k��,9.1,100,1,7,10.5,10.5
2023-03-13T03:36:00+09:00,2.4,�k��,5.8,���k��,9,99.9,0.5,7,10.5,10.5
2023-03-13T03:37:00+09:00,2.6,�k��,5.8,���k��,9.1,99.8,0.5,6.5,10.5,10.5
2023-03-13T03:38:00+09:00,2.6,�k��,5.8,���k��,9.1,99.8,0.5,6.5,10.5,10.5
2023-03-13T03:39:00+09:00,2.5,���k��,5.8,���k��,9.2,99.9,1,7,11,11
2023-03-13T03:40:00+09:00,2.3,���k��,5.8,���k��,9.2,99.9,1,6.5,11,11
2023-03-13T03:41:00+09:00,2.1,���k��,4.5,��,9.3,100,1,6.5,11,11
2023-03-13T03:42:00+09:00,1.9,���k��,4.4,�k��,9.3,99.9,1,6.5,11,11
2023-03-13T03:43:00+09:00,1.8,���k��,4.4,�k��,9.2,99.9,0.5,6.5,11,11
2023-03-13T03:44:00+09:00,1.8,���k��,4.4,�k��,9.2,99.8,0.5,6.5,11,11
2023-03-13T03:45:00+09:00,1.9,���k��,4.4,�k��,9.2,99.8,0.5,6.5,11,11
2023-03-13T03:46:00+09:00,1.9,���k��,4.4,�k��,9.2,99.9,0.5,6.5,11,11
2023-03-13T03:47:00+09:00,1.7,���k��,4.3,���k��,9,99.8,0.5,6.5,11,11
2023-03-13T03:48:00+09:00,1.8,���k��,4.3,���k��,9.1,99.8,1,7,11.5,11.5
2023-03-13T03:49:00+09:00,1.8,���k��,4.3,���k��,9.1,99.8,0.5,6.5,11.5,11.5
2023-03-13T03:50:00+09:00,1.8,���k��,4.3,���k��,9.1,99.9,0.5,6.5,11.5,11.5
2023-03-13T03:51:00+09:00,1.8,�k��,4.3,���k��,9.2,99.9,0.5,6.5,11.5,11.5
2023-03-13T03:52:00+09:00,1.9,�k��,4.3,���k��,9.2,100,0.5,6.5,11.5,11.5
2023-03-13T03:53:00+09:00,2,�k��,4.3,���k��,9.2,100,0.5,6.5,11.5,11.5
2023-03-13T03:54:00+09:00,2.1,�k��,4.3,���k��,9.2,100,0.5,6,11.5,11.5
2023-03-13T03:55:00+09:00,1.9,�k��,3.8,���k��,9.2,99.9,0.5,6,11.5,11.5
2023-03-13T03:56:00+09:00,1.9,�k��,3.8,���k��,9.2,99.9,0.5,5.5,11.5,11.5
2023-03-13T03:57:00+09:00,2,�k��,4.5,���k��,9.2,99.9,0.5,5,11.5,11.5
2023-03-13T03:58:00+09:00,2.1,�k��,4.5,���k��,9.2,99.8,0,5,11.5,11.5
2023-03-13T03:59:00+09:00,2.1,�k��,4.5,���k��,9.2,99.8,0,4.5,11.5,11.5
2023-03-13T04:00:00+09:00,2.1,�k��,4.5,���k��,9.1,99.7,0,4,11.5,11.5
2023-03-13T04:01:00+09:00,2.2,�k��,4.5,���k��,9.1,99.6,0,4,11.5,11.5
2023-03-13T04:02:00+09:00,2.1,�k��,4.5,���k��,9.1,99.6,0,3.5,11.5,11.5
2023-03-13T04:03:00+09:00,2.1,�k��,4.5,���k��,9.1,99.6,0,3.5,11.5,11.5
2023-03-13T04:04:00+09:00,2,�k��,4.5,���k��,9.2,99.6,0,3.5,11.5,11.5
2023-03-13T04:05:00+09:00,1.9,�k��,4.5,���k��,9.2,99.6,0.5,3.5,12,12
2023-03-13T04:06:00+09:00,1.7,�k��,4.5,���k��,9.3,99.6,0.5,3.5,12,12
2023-03-13T04:07:00+09:00,1.6,�k��,3.9,�k��,9.1,99.6,0.5,3.5,12,12
2023-03-13T04:08:00+09:00,1.4,�k��,3.9,�k��,9,99.4,0.5,3,12,12
2023-03-13T04:09:00+09:00,1.3,�k��,3.9,�k��,8.9,99.5,0.5,3,12,12
2023-03-13T04:10:00+09:00,1.3,�k��,3,�k��,8.9,99.5,0.5,3,12,12
2023-03-13T04:11:00+09:00,1.2,�k��,3,�k��,8.9,99.6,0.5,3,12,12
2023-03-13T04:12:00+09:00,1.1,�k��,2.5,���k��,8.8,99.6,0.5,3,12,12
2023-03-13T04:13:00+09:00,1,�k�k��,2.4,���쐼,8.8,99.7,0.5,2.5,12,12
2023-03-13T04:14:00+09:00,0.8,��,2.4,���쐼,8.9,99.8,0.5,2.5,12,12
2023-03-13T04:15:00+09:00,0.8,��,2.4,���쐼,8.9,99.9,0,2.5,12,12
2023-03-13T04:16:00+09:00,0.8,���쐼,2.4,���쐼,9,100,0,2.5,12,12
2023-03-13T04:17:00+09:00,0.7,�쐼,2.4,���쐼,9,100,0,2.5,12,12
2023-03-13T04:18:00+09:00,0.7,�쐼,2.4,���쐼,9,100,0.5,3,12.5,12.5
2023-03-13T04:19:00+09:00,0.8,�쐼,2.4,���쐼,8.9,100,0.5,3,12.5,12.5
2023-03-13T04:20:00+09:00,0.7,�쐼,2.4,���쐼,8.9,100,0.5,3,12.5,12.5
2023-03-13T04:21:00+09:00,0.5,���쐼,1.6,��쐼,9,100,0.5,3,12.5,12.5
2023-03-13T04:22:00+09:00,0.5,���쐼,1.6,��쐼,8.8,100,0.5,3,12.5,12.5
2023-03-13T04:23:00+09:00,0.4,���쐼,1.6,��쐼,8.8,100,0.5,3,12.5,12.5
2023-03-13T04:24:00+09:00,0.4,��,1.6,��쐼,8.8,100,0.5,3,12.5,12.5
2023-03-13T04:25:00+09:00,0.4,��,1.6,��쐼,8.9,100,0.5,3,12.5,12.5
2023-03-13T04:26:00+09:00,0.5,���k��,2,�k,8.8,100,0.5,2.5,12.5,12.5
2023-03-13T04:27:00+09:00,0.6,���k��,2,�k,8.8,100,0.5,2.5,12.5,12.5
2023-03-13T04:28:00+09:00,0.5,�k��,2,�k,8.8,100,0.5,3,13,13
2023-03-13T04:29:00+09:00,0.4,�k�k��,2,�k,8.8,100,0.5,3,13,13
2023-03-13T04:30:00+09:00,0.4,�k�k��,2,�k,8.9,100,0.5,3,13,13
2023-03-13T04:31:00+09:00,0.4,�k,2,�k,8.9,100,0.5,3,13,13
2023-03-13T04:32:00+09:00,0.4,�k,2,�k,8.9,100,0.5,3,13,13
2023-03-13T04:33:00+09:00,0.5,�k,2,�k,8.9,100,0.5,2.5,13,13
2023-03-13T04:34:00+09:00,0.5,�k,2,�k,8.8,100,0.5,2.5,13,13
2023-03-13T04:35:00+09:00,0.5,�k�k��,2,�k,8.8,100,0.5,2.5,13,13
2023-03-13T04:36:00+09:00,0.4,�k�k��,1.6,�k,8.7,100,0.5,2.5,13,13
2023-03-13T04:37:00+09:00,0.4,�k��,1.6,�k,8.7,100,1,3,13.5,13.5
2023-03-13T04:38:00+09:00,0.4,�k�k��,1.6,�k,8.8,100,0.5,3,13.5,13.5
2023-03-13T04:39:00+09:00,0.4,�k�k��,1.6,�k,8.9,100,0.5,2.5,13.5,13.5
2023-03-13T04:40:00+09:00,0.5,�k�k��,1.6,�k,8.8,100,0.5,2.5,13.5,13.5
2023-03-13T04:41:00+09:00,0.5,�k�k��,1.6,�k,8.8,100,0.5,2.5,13.5,13.5
2023-03-13T04:42:00+09:00,0.5,�k�k��,1.9,�k,8.8,100,0.5,2.5,13.5,13.5
2023-03-13T04:43:00+09:00,0.5,�k��,2,�k��,8.9,100,0.5,2.5,13.5,13.5
2023-03-13T04:44:00+09:00,0.6,�k��,2.3,�k�k��,9,100,0.5,2.5,13.5,13.5
2023-03-13T04:45:00+09:00,0.7,�k��,2.3,�k�k��,8.8,100,0.5,2.5,13.5,13.5
2023-03-13T04:46:00+09:00,0.7,�k�k��,2.3,�k�k��,8.8,100,0.5,2.5,13.5,13.5
2023-03-13T04:47:00+09:00,0.7,�k�k��,2.3,�k�k��,8.8,100,0,2.5,13.5,13.5
2023-03-13T04:48:00+09:00,0.8,�k�k��,2.3,�k�k��,8.8,100,0,2,13.5,13.5
2023-03-13T04:49:00+09:00,0.8,�k,2.3,�k�k��,8.8,100,0,2,13.5,13.5
2023-03-13T04:50:00+09:00,0.9,�k,2.3,�k�k��,8.7,100,0,2,13.5,13.5
2023-03-13T04:51:00+09:00,1,�k��,2.3,�k�k��,8.7,100,0,2,13.5,13.5
2023-03-13T04:52:00+09:00,1,���k��,2.3,�k�k��,8.7,100,0,2,13.5,13.5
2023-03-13T04:53:00+09:00,1,��,2.3,�k�k��,8.7,100,0,2,13.5,13.5
2023-03-13T04:54:00+09:00,0.8,��,2.3,�쐼,8.7,100,0,2,13.5,13.5
2023-03-13T04:55:00+09:00,0.8,���쐼,2.3,�쐼,8.7,100,0.5,2.5,14,14
2023-03-13T04:56:00+09:00,0.9,���쐼,2.3,�쐼,8.8,100,0.5,2.5,14,14
2023-03-13T04:57:00+09:00,0.9,���쐼,2.3,�쐼,8.7,100,0.5,2.5,14,14
2023-03-13T04:58:00+09:00,0.9,���쐼,2.3,�쐼,8.7,100,0.5,2.5,14,14
2023-03-13T04:59:00+09:00,1,�쐼,2.3,�쐼,8.7,100,0.5,2.5,14,14
2023-03-13T05:00:00+09:00,1,�쐼,2.3,�쐼,8.7,100,0.5,2.5,14,14
2023-03-13T05:01:00+09:00,1,�쐼,2.1,�쐼,8.7,100,0.5,2.5,14,14
2023-03-13T05:02:00+09:00,1,�쐼,2.1,�쐼,8.7,100,0.5,2.5,14,14
2023-03-13T05:03:00+09:00,1,�쐼,2.1,�쐼,8.8,100,0.5,2.5,14,14
2023-03-13T05:04:00+09:00,1.1,���쐼,2.1,�쐼,8.8,100,0.5,2.5,14,14
2023-03-13T05:05:00+09:00,1,���쐼,2.1,�쐼,8.8,100,0,2,14,14
2023-03-13T05:06:00+09:00,1,���쐼,2.1,�쐼,8.8,100,0,2,14,14
2023-03-13T05:07:00+09:00,,,,,,,,,,
2023-03-13T05:08:00+09:00,1.1,���쐼,3.7,��쐼,8.7,100,0,2,14,14
2023-03-13T05:09:00+09:00,1.1,���쐼,3.7,��쐼,8.7,100,0,2,14,14
2023-03-13T05:10:00+09:00,1,���쐼,3.7,��쐼,8.8,100,0,2,14,14
2023-03-13T05:11:00+09:00,0.9,���쐼,3.7,��쐼,8.8,100,0,2,14,14
2023-03-13T05:12:00+09:00,0.9,�쐼,3.7,��쐼,8.9,100,0,2,14,14
2023-03-13T05:13:00+09:00,1.1,�쐼,3.8,��쐼,9.1,100,0,2,14,14
2023-03-13T05:14:00+09:00,1.3,�쐼,3.8,��쐼,9.2,100,0,2,14,14
2023-03-13T05:15:00+09:00,1.3,�쐼,3.8,��쐼,9.1,100,0,2,14,14
2023-03-13T05:16:00+09:00,1.3,�쐼,3.8,��쐼,8.9,100,0,2,14,14
2023-03-13T05:17:00+09:00,1.1,�쐼,3.8,��쐼,8.9,100,0,2,14,14
2023-03-13T05:18:00+09:00,1,���쐼,3.8,��쐼,9,100,0,1.5,14,14
2023-03-13T05:19:00+09:00,1,���쐼,3.8,��쐼,9,100,0,1.5,14,14
2023-03-13T05:20:00+09:00,1,��,3.8,��쐼,9,100,0,1.5,14,14
2023-03-13T05:21:00+09:00,0.9,��,3.8,��쐼,8.9,100,0,1.5,14,14
2023-03-13T05:22:00+09:00,0.9,���k��,3.8,��쐼,8.8,100,0,1.5,14,14
2023-03-13T05:23:00+09:00,0.7,���k��,2.9,���쐼,8.9,100,0,1.5,14,14
2023-03-13T05:24:00+09:00,0.5,�k��,1.4,�k,9,100,0,1.5,14,14
2023-03-13T05:25:00+09:00,0.5,�k�k��,1.4,�k,8.9,100,0,1.5,14,14
2023-03-13T05:26:00+09:00,0.5,�k�k��,1.4,�k,9,100,0,1.5,14,14
2023-03-13T05:27:00+09:00,0.5,�k�k��,1.4,�k,9,100,0,1.5,14,14
2023-03-13T05:28:00+09:00,0.5,�k,1.4,�k,9,100,0,1,14,14
2023-03-13T05:29:00+09:00,0.6,�k�k��,1.6,�쐼,9,100,0,1,14,14
2023-03-13T05:30:00+09:00,0.6,�k�k��,1.7,�쐼,8.9,100,0,1,14,14
2023-03-13T05:31:00+09:00,0.7,�k�k��,2.1,���쐼,8.9,100,0,1,14,14
2023-03-13T05:32:00+09:00,0.8,���k��,2.1,���쐼,8.9,100,0,1,14,14
2023-03-13T05:33:00+09:00,0.9,��,2.1,���쐼,8.9,100,0,1,14,14
2023-03-13T05:34:00+09:00,1,���쐼,2.1,���쐼,8.8,100,0,1,14,14
2023-03-13T05:35:00+09:00,1.1,���쐼,2.1,���쐼,8.8,100,0,1,14,14
2023-03-13T05:36:00+09:00,1.3,�쐼,2.4,�쐼,8.8,100,0,1,14,14
2023-03-13T05:37:00+09:00,1.4,�쐼,2.7,�쐼,8.8,100,0,0.5,14,14
2023-03-13T05:38:00+09:00,1.6,�쐼,2.7,�쐼,8.9,100,0,0.5,14,14
2023-03-13T05:39:00+09:00,1.7,�쐼,2.7,�쐼,8.9,100,0,0.5,14,14
2023-03-13T05:40:00+09:00,1.7,�쐼,2.7,�쐼,8.9,100,0,0.5,14,14
2023-03-13T05:41:00+09:00,1.7,�쐼,2.7,�쐼,8.9,100,0,0.5,14,14
2023-03-13T05:42:00+09:00,1.6,�쐼,2.7,�쐼,9,100,0,0.5,14,14
2023-03-13T05:43:00+09:00,1.7,�쐼,2.7,�쐼,9.1,100,0,0.5,14,14
2023-03-13T05:44:00+09:00,1.6,��쐼,2.7,�쐼,9.2,100,0,0.5,14,14
2023-03-13T05:45:00+09:00,1.6,��쐼,2.7,�쐼,9.1,100,0,0.5,14,14
2023-03-13T05:46:00+09:00,1.6,��쐼,3.1,��,9.2,100,0,0.5,14,14
2023-03-13T05:47:00+09:00,1.6,��,3.1,��,9.1,100,0,0.5,14,14
2023-03-13T05:48:00+09:00,1.6,��,3.1,��,9.2,100,0,0.5,14,14
2023-03-13T05:49:00+09:00,1.6,��,3.1,��,9.2,100,0,0.5,14,14
2023-03-13T05:50:00+09:00,1.5,��,3.1,��,9.2,100,0,0.5,14,14
2023-03-13T05:51:00+09:00,1.5,��,3.1,��,9.2,100,0,0.5,14,14
2023-03-13T05:52:00+09:00,1.6,��,3.5,�쐼,9.3,100,0,0.5,14,14
2023-03-13T05:53:00+09:00,1.8,��,3.5,�쐼,9.5,100,0,0.5,14,14
2023-03-13T05:54:00+09:00,1.9,��,4,��,9.5,99.8,0,0.5,14,14
2023-03-13T05:55:00+09:00,2,��쐼,4,��,9.5,99.3,0,0,14,14
2023-03-13T05:56:00+09:00,2,��쐼,4,��,9.6,98.6,0,0,14,14
2023-03-13T05:57:00+09:00,2.1,��쐼,4,��,9.6,97.8,0,0,14,14
2023-03-13T05:58:00+09:00,2.1,��쐼,4,��,9.6,96.7,0,0,14,14
2023-03-13T05:59:00+09:00,2.2,��쐼,4,��,9.6,95.7,0,0,14,14
2023-03-13T06:00:00+09:00,2.2,��쐼,4,��,9.4,95,0,0,14,14
2023-03-13T06:01:00+09:00,2.3,��쐼,4,��,9.4,95,0,0,14,14
2023-03-13T06:02:00+09:00,2.3,��쐼,4,��,9.4,95.3,0,0,14,14
2023-03-13T06:03:00+09:00,2.2,��쐼,4,��,9.4,95.4,0,0,14,14
2023-03-13T06:04:00+09:00,2.2,��쐼,3.8,��쐼,9.4,95.5,0,0,14,14
2023-03-13T06:05:00+09:00,2.1,��쐼,3.8,��쐼,9.5,95.6,0,0,14,14
2023-03-13T06:06:00+09:00,2,��쐼,3.8,��쐼,9.4,95.5,0,0,14,14
2023-03-13T06:07:00+09:00,1.9,��쐼,3.8,��쐼,9.4,95.4,0,0,14,14
2023-03-13T06:08:00+09:00,1.8,��쐼,3.8,��쐼,9.5,95.3,0,0,14,14
2023-03-13T06:09:00+09:00,1.8,��쐼,3.8,��쐼,9.5,95.1,0,0,14,14
2023-03-13T06:10:00+09:00,1.8,��쐼,3.8,��쐼,9.5,94.6,0,0,14,14
2023-03-13T06:11:00+09:00,1.8,��쐼,3.8,��쐼,9.5,94,0,0,14,14